This is the latest recevied weather packets stored in our database for station/object DB0TGO-13. If no packets are shown the sender has not sent any weather packets the latest 10 day(s).
| Time | Temp. | Humidity | Pressure | Rain* | Wind** | Luminosity | Snow |
|---|---|---|---|---|---|---|---|
| 1777880702 | 17.78° C | 62% | 1006.9 hPa | - | - | - | - |
| 1777879802 | 17.78° C | 62% | 1006.9 hPa | - | - | - | - |
| 1777878902 | 16.67° C | 65% | 1006.8 hPa | - | - | - | - |
| 1777878002 | 16.67° C | 65% | 1006.8 hPa | - | - | - | - |
| 1777877102 | 17.22° C | 62% | 1006.6 hPa | - | - | - | - |
| 1777876203 | 17.22° C | 62% | 1006.6 hPa | - | - | - | - |
| 1777875303 | 16.11° C | 65% | 1006.5 hPa | - | - | - | - |
| 1777874402 | 16.11° C | 65% | 1006.5 hPa | - | - | - | - |
| 1777873502 | 16.11° C | 64% | 1006.2 hPa | - | - | - | - |
| 1777872602 | 16.11° C | 64% | 1006.2 hPa | - | - | - | - |
| 1777871702 | 16.11° C | 63% | 1005.9 hPa | - | - | - | - |
| 1777870802 | 16.11° C | 63% | 1005.9 hPa | - | - | - | - |
| 1777869902 | 16.11° C | 63% | 1005.5 hPa | - | - | - | - |
| 1777869003 | 16.11° C | 63% | 1005.5 hPa | - | - | - | - |
| 1777868102 | 16.67° C | 61% | 1005.8 hPa | - | - | - | - |
| 1777867202 | 16.67° C | 61% | 1005.8 hPa | - | - | - | - |
| 1777866303 | 17.22° C | 52% | 1006 hPa | - | - | - | - |
| 1777865402 | 17.22° C | 52% | 1006 hPa | - | - | - | - |
| 1777864502 | 17.78° C | 51% | 1006.1 hPa | - | - | - | - |
| 1777863604 | 17.78° C | 51% | 1006.1 hPa | - | - | - | - |
| 1777841102 | 22.22° C | 37% | 1004.7 hPa | - | - | - | - |
| 1777840203 | 22.22° C | 37% | 1004.7 hPa | - | - | - | - |
| 1777839302 | 21.67° C | 40% | 1004.4 hPa | - | - | - | - |
| 1777838402 | 21.67° C | 40% | 1004.4 hPa | - | - | - | - |
| 1777837503 | 21.11° C | 43% | 1004.3 hPa | - | - | - | - |
* Rain since midnight (hover to see other rain measurements)
** Current wind speed in m/s (hover to see current wind gust speed)